EW4382 Weather Reports


time (UTC)temp
C
wind
direction
speed
KPH
gust
KPH
rain 1hr
cm
rain 24hr
cm
rain mn
cm
humidity
%
barometer
mb
20260507220009 6 14 0.0 1.6 0.00 0.00 0.00 53 1019.6
20260507214505 6 14 0.0 3.2 0.00 0.00 0.00 55 1019.5
20260507213101 7 14 0.0 1.6 0.00 0.00 0.00 56 1019.3
20260507211623 7 14 0.0 3.2 0.00 0.00 0.00 55 1019.0
20260507210053 7 14 0.0 1.6 0.00 0.00 0.00 55 1018.9
20260507204549 8 14 0.0 3.2 0.00 0.00 0.00 51 1018.7
20260507203043 9 14 0.0 4.8 0.00 0.00 0.00 46 1018.6
20260507201538 10 14 1.6 9.7 0.00 0.00 0.00 41 1018.4
20260507200037 10 55 3.2 9.7 0.00 0.00 0.00 43 1018.3
20260507194535 10 335 3.2 8.0 0.00 0.00 0.00 39 1017.9
20260507193028 11 338 4.8 8.0 0.00 0.00 0.00 41 1017.7
20260507191520 12 342 1.6 4.8 0.00 0.00 0.00 37 1017.5
20260507190015 12 342 3.2 8.0 0.00 0.00 0.00 34 1017.3
20260507184514 -17 0.0 0.0 0.00 0.00 0.00 1017.1
20260507183009 -17 0.0 0.0 0.00 0.00 0.00 1016.8
20260507181504 -17 0.0 0.0 0.00 0.00 0.00 1016.7
20260507180059 -17 0.0 0.0 0.00 0.00 0.00 1016.6
20260507174554 -17 0.0 0.0 0.00 0.00 0.00 1016.4
20260507173054 -17 0.0 0.0 0.00 0.00 0.00 1016.2
20260507171546 -17 0.0 0.0 0.00 0.00 0.00 1016.1
20260507170042 -17 0.0 0.0 0.00 0.00 0.00 1016.1
20260507164537 -17 0.0 0.0 0.00 0.00 0.00 1016.0
20260507163032 -17 0.0 0.0 0.00 0.00 0.00 1015.9
20260507161529 -17 0.0 0.0 0.00 0.00 0.00 1015.9
20260507160032 -17 0.0 0.0 0.00 0.00 0.00 1015.9
20260507154519 -17 0.0 0.0 0.00 0.00 0.00 1015.8
20260507153015 -17 0.0 0.0 0.00 0.00 0.00 1015.8
20260507151511 -17 0.0 0.0 0.00 0.00 0.00 1015.7
20260507150010 -17 0.0 0.0 0.00 0.00 0.00 1015.8
20260507144503 -17 0.0 0.0 0.00 0.00 0.00 1015.7
20260507143103 17 246 8.0 17.7 0.00 0.00 0.00 18 1015.8
20260507141556 16 324 6.4 12.9 0.00 0.00 0.00 19 1015.8
20260507140103 16 308 4.8 12.9 0.00 0.00 0.00 18 1015.8
20260507134545 16 279 6.4 14.5 0.00 0.00 0.00 18 1015.8
20260507133041 15 46 6.4 17.7 0.00 0.00 0.00 18 1015.8
20260507131542 15 271 8.0 17.7 0.00 0.00 0.00 17 1015.8
20260507130032 15 237 8.0 20.9 0.00 0.00 0.00 20 1015.8
20260507124531 15 46 8.0 20.9 0.00 0.00 0.00 18 1015.7
20260507123026 15 302 4.8 14.5 0.00 0.00 0.00 18 1015.7
20260507121519 15 306 4.8 14.5 0.00 0.00 0.00 18 1015.6
20260507120014 15 277 8.0 19.3 0.00 0.00 0.00 19 1015.6
20260507114510 14 304 6.4 17.7 0.00 0.00 0.00 19 1015.6
20260507113006 15 347 6.4 16.1 0.00 0.00 0.00 18 1015.6
20260507111503 16 199 6.4 16.1 0.00 0.00 0.00 19 1015.6
20260507110059 15 197 6.4 12.9 0.00 0.00 0.00 20 1015.7
20260507104554 15 202 8.0 16.1 0.00 0.00 0.00 19 1015.7
20260507103048 15 223 4.8 12.9 0.00 0.00 0.00 22 1015.7
20260507101558 14 213 4.8 16.1 0.00 0.00 0.00 23 1015.7
20260507100039 13 320 8.0 17.7 0.00 0.00 0.00 22 1015.5
20260507094535 13 241 4.8 17.7 0.00 0.00 0.00 24 1015.5
20260507093032 13 296 4.8 14.5 0.00 0.00 0.00 23 1015.4
20260507091547 13 288 4.8 16.1 0.00 0.00 0.00 29 1015.4
20260507090021 13 211 4.8 17.7 0.00 0.00 0.00 31 1015.4
20260507084517 13 239 9.7 19.3 0.00 0.00 0.00 33 1015.5
20260507083017 12 275 8.0 17.7 0.00 0.00 0.00 37 1015.4
20260507081511 12 292 6.4 17.7 0.00 0.00 0.00 35 1015.3
20260507080008 12 243 9.7 19.3 0.00 0.00 0.00 38 1015.2
20260507074508 12 223 6.4 20.9 0.00 0.00 0.00 45 1015.1
20260507073110 12 237 6.4 17.7 0.00 0.00 0.00 49 1015.1
20260507071559 11 300 4.8 17.7 0.00 0.00 0.00 52 1015.1
20260507070134 10 266 6.4 12.9 0.00 0.00 0.00 53 1015.2
20260507064549 9 331 1.6 9.7 0.00 0.00 0.00 55 1015.1
20260507063041 9 325 6.4 14.5 0.00 0.00 0.00 54 1015.1
20260507061537 9 344 6.4 17.7 0.00 0.00 0.00 53 1015.1
20260507060033 10 311 4.8 12.9 0.00 0.00 0.00 50 1015.1
20260507054528 10 206 1.6 6.4 0.00 0.00 0.00 54 1015.0
20260507053024 8 209 1.6 6.4 0.00 0.00 0.00 55 1015.1
20260507051519 7 199 1.6 6.4 0.00 0.00 0.00 32 1014.9
20260507050029 5 186 0.0 1.6 0.00 0.00 0.00 13 1014.9
20260507044526 5 186 0.0 0.0 0.00 0.00 0.00 3 1014.8
20260507043007 3 186 0.0 1.6 0.00 0.00 0.00 1 1014.7
20260507041503 3 186 0.0 0.0 0.00 0.00 0.00 1 1014.7
20260507040059 2 186 0.0 0.0 0.00 0.00 0.00 1 1014.7
20260507034554 1 186 0.0 0.0 0.00 0.00 0.00 1 1014.5
20260507033050 1 186 0.0 3.2 0.00 0.00 0.00 1 1014.3
20260507031545 1 186 0.0 1.6 0.00 0.00 0.00 1 1014.2
20260507030043 1 186 0.0 0.0 0.00 0.00 0.00 1 1014.2
20260507024537 1 186 0.0 1.6 0.00 0.00 0.00 1 1014.1
20260507023034 2 186 0.0 3.2 0.00 0.00 0.00 12 1014.0
20260507021529 2 186 0.0 0.0 0.00 0.00 0.00 19 1013.9
20260507020024 2 186 0.0 3.2 0.00 0.00 0.00 34 1014.0
20260507014522 3 186 1.6 4.8 0.00 0.00 0.00 46 1013.8
20260507013015 4 186 0.0 0.0 0.00 0.00 0.00 52 1013.8
20260507011511 5 186 0.0 4.8 0.00 0.00 0.00 55 1013.6
20260507010009 6 186 4.8 8.0 0.00 0.00 0.00 56 1013.6
20260507004506 6 186 4.8 6.4 0.00 0.00 0.00 57 1013.5
20260507003004 6 184 4.8 11.3 0.00 0.00 0.00 57 1013.5
20260507001505 6 156 6.4 16.1 0.00 0.00 0.00 56 1013.5
20260507000101 7 188 6.4 16.1 0.00 0.00 0.00 56 1013.5
20260506234559 7 171 8.0 16.1 0.00 0.00 0.00 56 1013.5
20260506233057 7 182 3.2 11.3 0.00 0.00 0.00 53 1013.4
20260506231555 7 149 3.2 11.3 0.00 0.00 0.00 52 1013.5
20260506224550 7 144 3.2 8.0 0.00 0.00 0.00 52 1013.3
20260506223048 7 165 1.6 9.7 0.00 0.00 0.00 52 1013.3
20260506221548 7 186 3.2 8.0 0.00 0.00 0.00 49 1013.3